Wetterdaten: Montag, 01.06.2015
Datum Zeit Auen-Temp. Temp gefhlt Luftfeuchte Luftdruck Regen Wind Richtung Richtung Taupunkt Windben
01.06.2015 00:00 10,8 C 10,4 C 81 % 1016,1 hPa 0,0 mm 0,0 km/h (0 Bft) W-SW 247 7,7 C 0,0 km/h (0 Bft)
01.06.2015 00:05 10,8 C 10,4 C 81 % 1016,1 hPa 0,0 mm 0,0 km/h (0 Bft) S 180 7,7 C 0,0 km/h (0 Bft)
01.06.2015 00:10 10,7 C 10,3 C 81 % 1016,1 hPa 0,0 mm 0,0 km/h (0 Bft) W-SW 247 7,6 C 0,0 km/h (0 Bft)
01.06.2015 00:15 10,7 C 10,3 C 81 % 1016,1 hPa 0,0 mm 0,0 km/h (0 Bft) S-SO 157 7,6 C 0,0 km/h (0 Bft)
01.06.2015 00:20 10,7 C 10,3 C 82 % 1016,1 hPa 0,0 mm 0,0 km/h (0 Bft) S-SO 157 7,8 C 0,0 km/h (0 Bft)
01.06.2015 00:25 10,7 C 10,3 C 82 % 1016,1 hPa 0,0 mm 0,0 km/h (0 Bft) S 180 7,8 C 0,0 km/h (0 Bft)
01.06.2015 00:30 10,7 C 10,3 C 82 % 1016,1 hPa 0,0 mm 0,0 km/h (0 Bft) S-SW 202 7,8 C 0,0 km/h (0 Bft)
01.06.2015 00:35 10,6 C 10,2 C 82 % 1016,1 hPa 0,0 mm 0,0 km/h (0 Bft) W 270 7,7 C 0,0 km/h (0 Bft)
01.06.2015 00:40 10,6 C 10,2 C 82 % 1016,0 hPa 0,0 mm 0,3 km/h (0 Bft) S 180 7,7 C 2,8 km/h (1 Bft)
01.06.2015 00:45 10,7 C 10,3 C 82 % 1016,0 hPa 0,0 mm 0,3 km/h (0 Bft) S 180 7,8 C 0,0 km/h (0 Bft)
01.06.2015 00:50 10,5 C 10,2 C 82 % 1016,0 hPa 0,0 mm 0,3 km/h (0 Bft) S-SW 202 7,6 C 0,0 km/h (0 Bft)
01.06.2015 00:55 10,5 C 10,2 C 82 % 1016,0 hPa 0,0 mm 0,0 km/h (0 Bft) S 180 7,6 C 0,0 km/h (0 Bft)
01.06.2015 01:00 10,2 C 9,9 C 82 % 1016,0 hPa 0,0 mm 0,0 km/h (0 Bft) S 180 7,3 C 0,0 km/h (0 Bft)
01.06.2015 01:05 10,0 C 9,8 C 82 % 1016,0 hPa 0,0 mm 0,0 km/h (0 Bft) W-NW 292 7,1 C 0,0 km/h (0 Bft)
01.06.2015 01:10 9,9 C 9,7 C 82 % 1016,0 hPa 0,0 mm 0,0 km/h (0 Bft) W-NW 292 7,0 C 0,0 km/h (0 Bft)
01.06.2015 01:15 9,9 C 9,6 C 82 % 1016,0 hPa 0,0 mm 0,0 km/h (0 Bft) W-NW 292 7,0 C 0,0 km/h (0 Bft)
01.06.2015 01:20 10,1 C 9,8 C 83 % 1015,8 hPa 0,0 mm 0,0 km/h (0 Bft) W-NW 292 7,3 C 0,0 km/h (0 Bft)
01.06.2015 01:25 10,0 C 9,7 C 83 % 1015,8 hPa 0,0 mm 0,0 km/h (0 Bft) W-NW 292 7,2 C 0,0 km/h (0 Bft)
01.06.2015 01:30 9,8 C 9,6 C 83 % 1015,8 hPa 0,0 mm 0,0 km/h (0 Bft) W-NW 292 7,1 C 0,0 km/h (0 Bft)
01.06.2015 01:35 9,8 C 9,6 C 83 % 1015,8 hPa 0,0 mm 0,0 km/h (0 Bft) W-NW 292 7,1 C 0,0 km/h (0 Bft)
01.06.2015 01:40 9,7 C 9,5 C 83 % 1015,9 hPa 0,0 mm 0,0 km/h (0 Bft) W-NW 292 7,0 C 0,0 km/h (0 Bft)
01.06.2015 01:45 9,9 C 9,6 C 84 % 1015,9 hPa 0,0 mm 0,0 km/h (0 Bft) W-NW 292 7,3 C 0,0 km/h (0 Bft)
01.06.2015 01:50 9,8 C 9,6 C 83 % 1015,9 hPa 0,0 mm 0,0 km/h (0 Bft) W-NW 292 7,1 C 0,0 km/h (0 Bft)
01.06.2015 01:55 9,8 C 9,6 C 84 % 1015,9 hPa 0,0 mm 0,0 km/h (0 Bft) W-NW 292 7,2 C 0,0 km/h (0 Bft)
01.06.2015 02:00 9,8 C 9,6 C 84 % 1015,8 hPa 0,0 mm 0,0 km/h (0 Bft) W-NW 292 7,2 C 0,0 km/h (0 Bft)
01.06.2015 02:05 10,0 C 9,7 C 84 % 1015,8 hPa 0,0 mm 0,0 km/h (0 Bft) W-NW 292 7,4 C 0,0 km/h (0 Bft)
01.06.2015 02:10 9,7 C 9,5 C 84 % 1015,8 hPa 0,0 mm 0,0 km/h (0 Bft) W-NW 292 7,1 C 0,0 km/h (0 Bft)
01.06.2015 02:15 9,7 C 9,5 C 84 % 1015,8 hPa 0,0 mm 0,0 km/h (0 Bft) W-NW 292 7,1 C 0,0 km/h (0 Bft)
01.06.2015 02:20 9,7 C 9,4 C 84 % 1015,6 hPa 0,0 mm 0,0 km/h (0 Bft) W-NW 292 7,1 C 0,0 km/h (0 Bft)
01.06.2015 02:25 9,6 C 9,4 C 84 % 1015,6 hPa 0,0 mm 0,0 km/h (0 Bft) W-NW 292 7,0 C 0,0 km/h (0 Bft)
01.06.2015 02:30 9,7 C 9,4 C 84 % 1015,6 hPa 0,0 mm 0,0 km/h (0 Bft) W-NW 292 7,1 C 0,0 km/h (0 Bft)
01.06.2015 02:35 9,8 C 9,5 C 85 % 1015,6 hPa 0,0 mm 0,0 km/h (0 Bft) S 180 7,4 C 0,0 km/h (0 Bft)
01.06.2015 02:40 9,7 C 9,4 C 85 % 1015,9 hPa 0,0 mm 0,5 km/h (0 Bft) W-SW 247 7,3 C 4,1 km/h (1 Bft)
01.06.2015 02:45 9,9 C 9,6 C 85 % 1015,9 hPa 0,0 mm 0,5 km/h (0 Bft) SO 135 7,5 C 6,7 km/h (2 Bft)
01.06.2015 02:50 9,6 C 9,4 C 85 % 1015,9 hPa 0,0 mm 0,5 km/h (0 Bft) W 270 7,2 C 0,0 km/h (0 Bft)
01.06.2015 02:55 9,5 C 9,3 C 85 % 1015,9 hPa 0,0 mm 0,8 km/h (0 Bft) N-NW 337 7,1 C 0,0 km/h (0 Bft)
01.06.2015 03:00 9,6 C 9,4 C 85 % 1016,1 hPa 0,0 mm 0,5 km/h (0 Bft) SO 135 7,2 C 0,0 km/h (0 Bft)
01.06.2015 03:05 9,6 C 9,4 C 85 % 1016,1 hPa 0,0 mm 0,5 km/h (0 Bft) O-SO 112 7,2 C 0,0 km/h (0 Bft)
01.06.2015 03:10 10,3 C 10,1 C 81 % 1016,1 hPa 0,0 mm 3,6 km/h (1 Bft) S-SW 202 7,2 C 6,2 km/h (2 Bft)
01.06.2015 03:15 10,5 C 10,3 C 86 % 1016,1 hPa 0,0 mm 3,6 km/h (1 Bft) SW 225 8,3 C 12,4 km/h (3 Bft)
01.06.2015 03:20 10,6 C 10,4 C 85 % 1016,2 hPa 0,0 mm 1,8 km/h (1 Bft) S-SO 157 8,2 C 0,0 km/h (0 Bft)
01.06.2015 03:25 10,6 C 10,5 C 85 % 1016,2 hPa 0,0 mm 1,8 km/h (1 Bft) S-SW 202 8,2 C 0,0 km/h (0 Bft)
01.06.2015 03:30 11,0 C 10,8 C 85 % 1016,2 hPa 0,0 mm 2,8 km/h (1 Bft) SW 225 8,6 C 5,4 km/h (1 Bft)
01.06.2015 03:35 11,2 C 11,1 C 84 % 1016,2 hPa 0,0 mm 3,9 km/h (1 Bft) S 180 8,6 C 3,4 km/h (1 Bft)
01.06.2015 03:40 11,0 C 11,0 C 83 % 1016,2 hPa 0,0 mm 3,1 km/h (1 Bft) W 270 8,2 C 0,0 km/h (0 Bft)
01.06.2015 03:45 11,0 C 11,0 C 83 % 1016,2 hPa 0,0 mm 1,6 km/h (1 Bft) S 180 8,2 C 0,0 km/h (0 Bft)
01.06.2015 03:50 11,2 C 11,1 C 83 % 1016,2 hPa 0,0 mm 2,6 km/h (1 Bft) W-SW 247 8,4 C 7,8 km/h (2 Bft)
01.06.2015 03:55 11,1 C 11,1 C 82 % 1016,2 hPa 0,0 mm 3,4 km/h (1 Bft) S 180 8,1 C 3,4 km/h (1 Bft)
01.06.2015 04:00 10,9 C 11,0 C 82 % 1016,3 hPa 0,0 mm 4,1 km/h (1 Bft) S-SO 157 7,9 C 6,5 km/h (2 Bft)
01.06.2015 04:05 10,9 C 10,9 C 82 % 1016,3 hPa 0,0 mm 3,1 km/h (1 Bft) O 90 7,9 C 0,0 km/h (0 Bft)
01.06.2015 04:10 10,9 C 10,9 C 82 % 1016,3 hPa 0,0 mm 2,6 km/h (1 Bft) W-SW 247 7,9 C 9,3 km/h (2 Bft)
01.06.2015 04:15 11,0 C 11,0 C 81 % 1016,3 hPa 0,0 mm 3,4 km/h (1 Bft) SW 225 7,9 C 9,6 km/h (2 Bft)
01.06.2015 04:20 11,0 C 11,0 C 81 % 1016,2 hPa 0,0 mm 5,2 km/h (1 Bft) S 180 7,9 C 3,1 km/h (1 Bft)
01.06.2015 04:25 10,8 C 11,0 C 81 % 1016,2 hPa 0,0 mm 4,4 km/h (1 Bft) S-SO 157 7,7 C 0,0 km/h (0 Bft)
01.06.2015 04:30 10,7 C 10,8 C 81 % 1016,2 hPa 0,0 mm 1,3 km/h (1 Bft) S 180 7,6 C 0,0 km/h (0 Bft)
01.06.2015 04:35 10,8 C 10,8 C 81 % 1016,2 hPa 0,0 mm 0,3 km/h (0 Bft) SO 135 7,7 C 0,0 km/h (0 Bft)
01.06.2015 04:40 10,8 C 10,8 C 81 % 1016,2 hPa 0,0 mm 2,3 km/h (1 Bft) S-SO 157 7,7 C 7,0 km/h (2 Bft)
01.06.2015 04:45 10,8 C 10,8 C 81 % 1016,2 hPa 0,0 mm 4,4 km/h (1 Bft) S-SO 157 7,7 C 5,2 km/h (1 Bft)
01.06.2015 04:50 10,6 C 10,6 C 81 % 1016,2 hPa 0,0 mm 3,4 km/h (1 Bft) SO 135 7,5 C 0,0 km/h (0 Bft)
01.06.2015 04:55 10,5 C 10,5 C 82 % 1016,2 hPa 0,0 mm 1,6 km/h (1 Bft) S 180 7,6 C 2,6 km/h (1 Bft)
01.06.2015 05:00 10,6 C 10,5 C 82 % 1016,4 hPa 0,0 mm 0,3 km/h (0 Bft) SW 225 7,7 C 2,8 km/h (1 Bft)
01.06.2015 05:05 10,5 C 10,4 C 82 % 1016,4 hPa 0,0 mm 0,5 km/h (0 Bft) S-SO 157 7,6 C 0,0 km/h (0 Bft)
01.06.2015 05:10 10,6 C 10,5 C 82 % 1016,4 hPa 0,0 mm 0,3 km/h (0 Bft) S-SO 157 7,7 C 0,0 km/h (0 Bft)
01.06.2015 05:15 10,6 C 10,5 C 82 % 1016,4 hPa 0,0 mm 0,0 km/h (0 Bft) S-SO 157 7,7 C 0,0 km/h (0 Bft)
01.06.2015 05:20 10,5 C 10,4 C 82 % 1016,3 hPa 0,0 mm 0,3 km/h (0 Bft) S 180 7,6 C 2,8 km/h (1 Bft)
01.06.2015 05:25 10,5 C 10,4 C 83 % 1016,3 hPa 0,0 mm 0,8 km/h (0 Bft) S 180 7,7 C 0,0 km/h (0 Bft)
01.06.2015 05:30 10,4 C 10,4 C 80 % 1016,3 hPa 0,0 mm 0,8 km/h (0 Bft) S-SO 157 7,1 C 0,0 km/h (0 Bft)
01.06.2015 05:35 10,6 C 10,5 C 83 % 1016,3 hPa 0,0 mm 0,3 km/h (0 Bft) SO 135 7,8 C 2,6 km/h (1 Bft)
01.06.2015 05:40 10,7 C 10,6 C 83 % 1016,3 hPa 0,0 mm 0,0 km/h (0 Bft) S-SO 157 7,9 C 0,0 km/h (0 Bft)
01.06.2015 05:45 10,7 C 10,6 C 83 % 1016,3 hPa 0,0 mm 0,0 km/h (0 Bft) S-SO 157 7,9 C 0,0 km/h (0 Bft)
01.06.2015 05:50 10,8 C 10,7 C 83 % 1016,3 hPa 0,0 mm 0,0 km/h (0 Bft) SO 135 8,0 C 0,0 km/h (0 Bft)
01.06.2015 05:55 10,8 C 10,7 C 83 % 1016,3 hPa 0,0 mm 0,0 km/h (0 Bft) S-SO 157 8,0 C 0,0 km/h (0 Bft)
01.06.2015 06:00 10,7 C 10,7 C 82 % 1016,4 hPa 0,0 mm 0,0 km/h (0 Bft) W-SW 247 7,8 C 0,0 km/h (0 Bft)
01.06.2015 06:05 10,8 C 10,7 C 82 % 1016,4 hPa 0,0 mm 0,0 km/h (0 Bft) S-SW 202 7,9 C 0,0 km/h (0 Bft)
01.06.2015 06:10 11,0 C 10,9 C 82 % 1016,4 hPa 0,0 mm 0,0 km/h (0 Bft) S 180 8,0 C 0,0 km/h (0 Bft)
01.06.2015 06:15 11,1 C 11,1 C 82 % 1016,4 hPa 0,0 mm 0,0 km/h (0 Bft) S 180 8,1 C 0,0 km/h (0 Bft)
01.06.2015 06:20 11,1 C 11,3 C 80 % 1016,6 hPa 0,0 mm 0,0 km/h (0 Bft) S 180 7,8 C 0,0 km/h (0 Bft)
01.06.2015 06:25 11,1 C 11,6 C 79 % 1016,6 hPa 0,0 mm 0,0 km/h (0 Bft) W 270 7,6 C 0,0 km/h (0 Bft)
01.06.2015 06:30 11,3 C 12,1 C 79 % 1016,6 hPa 0,0 mm 0,0 km/h (0 Bft) W 270 7,8 C 0,0 km/h (0 Bft)
01.06.2015 06:35 11,4 C 12,2 C 79 % 1016,6 hPa 0,0 mm 0,0 km/h (0 Bft) W 270 7,9 C 0,0 km/h (0 Bft)
01.06.2015 06:40 11,6 C 12,4 C 79 % 1016,5 hPa 0,0 mm 0,0 km/h (0 Bft) W 270 8,1 C 0,0 km/h (0 Bft)
01.06.2015 06:45 11,6 C 12,6 C 79 % 1016,5 hPa 0,0 mm 0,0 km/h (0 Bft) W 270 8,1 C 0,0 km/h (0 Bft)
01.06.2015 06:50 11,8 C 12,7 C 79 % 1016,5 hPa 0,0 mm 0,0 km/h (0 Bft) W 270 8,3 C 0,0 km/h (0 Bft)
01.06.2015 06:55 11,9 C 12,8 C 79 % 1016,5 hPa 0,0 mm 0,0 km/h (0 Bft) W 270 8,4 C 0,0 km/h (0 Bft)
01.06.2015 07:00 12,3 C 13,6 C 79 % 1016,6 hPa 0,0 mm 0,0 km/h (0 Bft) W 270 8,8 C 0,0 km/h (0 Bft)
01.06.2015 07:05 12,7 C 14,3 C 79 % 1016,6 hPa 0,0 mm 0,0 km/h (0 Bft) NW 315 9,2 C 0,0 km/h (0 Bft)
01.06.2015 07:10 13,6 C 16,4 C 78 % 1016,6 hPa 0,0 mm 0,5 km/h (0 Bft) N 360 9,8 C 0,0 km/h (0 Bft)
01.06.2015 07:15 14,1 C 18,5 C 77 % 1016,6 hPa 0,0 mm 0,8 km/h (0 Bft) NW 315 10,1 C 0,0 km/h (0 Bft)
01.06.2015 07:20 15,0 C 20,7 C 76 % 1016,8 hPa 0,0 mm 0,5 km/h (0 Bft) NW 315 10,8 C 0,0 km/h (0 Bft)
01.06.2015 07:25 15,8 C 21,6 C 75 % 1016,8 hPa 0,0 mm 0,5 km/h (0 Bft) NW 315 11,4 C 0,0 km/h (0 Bft)
01.06.2015 07:30 16,5 C 23,0 C 72 % 1016,8 hPa 0,0 mm 0,8 km/h (0 Bft) N-NW 337 11,4 C 0,0 km/h (0 Bft)
01.06.2015 07:35 16,7 C 23,1 C 72 % 1016,8 hPa 0,0 mm 0,3 km/h (0 Bft) N-NO 22 11,6 C 0,0 km/h (0 Bft)
01.06.2015 07:40 16,9 C 24,0 C 70 % 1016,9 hPa 0,0 mm 0,0 km/h (0 Bft) N-NO 22 11,4 C 0,0 km/h (0 Bft)
01.06.2015 07:45 17,1 C 24,5 C 70 % 1016,9 hPa 0,0 mm 0,0 km/h (0 Bft) N-NO 22 11,6 C 0,0 km/h (0 Bft)
01.06.2015 07:50 17,6 C 25,7 C 69 % 1016,9 hPa 0,0 mm 0,0 km/h (0 Bft) W-NW 292 11,8 C 0,0 km/h (0 Bft)
01.06.2015 07:55 17,9 C 26,2 C 69 % 1016,9 hPa 0,0 mm 0,0 km/h (0 Bft) N-NO 22 12,1 C 0,0 km/h (0 Bft)
01.06.2015 08:00 17,8 C 26,6 C 68 % 1016,6 hPa 0,0 mm 0,0 km/h (0 Bft) N-NO 22 11,8 C 0,0 km/h (0 Bft)
01.06.2015 08:05 18,4 C 27,1 C 67 % 1016,6 hPa 0,0 mm 0,0 km/h (0 Bft) N-NO 22 12,2 C 0,0 km/h (0 Bft)
01.06.2015 08:10 19,3 C 27,9 C 66 % 1016,6 hPa 0,0 mm 0,3 km/h (0 Bft) N-NO 22 12,8 C 0,0 km/h (0 Bft)
01.06.2015 08:15 19,6 C 29,0 C 65 % 1016,6 hPa 0,0 mm 0,5 km/h (0 Bft) NW 315 12,8 C 2,6 km/h (1 Bft)
01.06.2015 08:20 19,5 C 27,7 C 64 % 1016,4 hPa 0,0 mm 0,8 km/h (0 Bft) N-NO 22 12,5 C 2,8 km/h (1 Bft)
01.06.2015 08:25 19,0 C 26,2 C 64 % 1016,4 hPa 0,0 mm 0,5 km/h (0 Bft) N-NW 337 12,0 C 0,0 km/h (0 Bft)
01.06.2015 08:30 18,6 C 24,6 C 65 % 1016,4 hPa 0,0 mm 0,0 km/h (0 Bft) N-NO 22 11,9 C 0,0 km/h (0 Bft)
01.06.2015 08:35 18,7 C 24,0 C 65 % 1016,4 hPa 0,0 mm 0,0 km/h (0 Bft) S-SW 202 12,0 C 2,8 km/h (1 Bft)
01.06.2015 08:40 18,8 C 23,5 C 64 % 1017,2 hPa 0,0 mm 1,0 km/h (0 Bft) NW 315 11,8 C 3,6 km/h (1 Bft)
01.06.2015 08:45 19,0 C 23,3 C 63 % 1017,2 hPa 0,0 mm 1,8 km/h (1 Bft) W 270 11,8 C 0,0 km/h (0 Bft)
01.06.2015 08:50 19,2 C 23,3 C 62 % 1017,2 hPa 0,0 mm 1,3 km/h (1 Bft) NW 315 11,7 C 3,9 km/h (1 Bft)
01.06.2015 08:55 19,4 C 23,4 C 62 % 1017,2 hPa 0,0 mm 0,8 km/h (0 Bft) W-NW 292 11,9 C 0,0 km/h (0 Bft)
01.06.2015 09:00 19,4 C 23,0 C 61 % 1017,1 hPa 0,0 mm 0,5 km/h (0 Bft) W 270 11,7 C 0,0 km/h (0 Bft)
01.06.2015 09:05 19,1 C 22,8 C 61 % 1017,1 hPa 0,0 mm 0,0 km/h (0 Bft) NO 45 11,4 C 0,0 km/h (0 Bft)
01.06.2015 09:10 19,2 C 22,9 C 61 % 1017,1 hPa 0,0 mm 0,5 km/h (0 Bft) N-NW 337 11,5 C 3,4 km/h (1 Bft)
01.06.2015 09:15 19,4 C 23,1 C 60 % 1017,1 hPa 0,0 mm 0,8 km/h (0 Bft) N-NW 337 11,4 C 0,0 km/h (0 Bft)
01.06.2015 09:20 19,5 C 23,3 C 60 % 1016,9 hPa 0,0 mm 1,8 km/h (1 Bft) W-NW 292 11,5 C 3,9 km/h (1 Bft)
01.06.2015 09:25 19,7 C 23,5 C 59 % 1016,9 hPa 0,0 mm 2,3 km/h (1 Bft) W-NW 292 11,5 C 4,9 km/h (1 Bft)
01.06.2015 09:30 19,6 C 22,9 C 58 % 1016,9 hPa 0,0 mm 4,7 km/h (1 Bft) NW 315 11,1 C 12,4 km/h (3 Bft)
01.06.2015 09:35 19,4 C 22,5 C 58 % 1016,9 hPa 0,0 mm 6,2 km/h (2 Bft) NW 315 10,9 C 6,2 km/h (2 Bft)
01.06.2015 09:40 19,3 C 22,2 C 58 % 1017,4 hPa 0,0 mm 6,2 km/h (2 Bft) NW 315 10,8 C 9,3 km/h (2 Bft)
01.06.2015 09:45 19,2 C 22,1 C 58 % 1017,4 hPa 0,0 mm 5,7 km/h (1 Bft) NW 315 10,7 C 17,1 km/h (3 Bft)
01.06.2015 09:50 19,2 C 22,2 C 58 % 1017,4 hPa 0,0 mm 4,7 km/h (1 Bft) NW 315 10,7 C 0,0 km/h (0 Bft)
01.06.2015 09:55 19,4 C 22,5 C 58 % 1017,4 hPa 0,0 mm 3,9 km/h (1 Bft) W 270 10,9 C 5,2 km/h (1 Bft)
01.06.2015 10:00 19,5 C 22,9 C 58 % 1017,1 hPa 0,0 mm 2,3 km/h (1 Bft) SW 225 11,0 C 2,8 km/h (1 Bft)
01.06.2015 10:05 19,5 C 23,0 C 58 % 1017,1 hPa 0,0 mm 2,6 km/h (1 Bft) S-SW 202 11,0 C 5,4 km/h (1 Bft)
01.06.2015 10:10 19,4 C 22,8 C 57 % 1017,1 hPa 0,0 mm 4,1 km/h (1 Bft) W 270 10,7 C 2,6 km/h (1 Bft)
01.06.2015 10:15 19,3 C 22,5 C 57 % 1017,1 hPa 0,0 mm 5,2 km/h (1 Bft) W 270 10,6 C 14,2 km/h (3 Bft)
01.06.2015 10:20 19,3 C 22,3 C 57 % 1017,2 hPa 0,0 mm 5,7 km/h (1 Bft) W 270 10,6 C 5,2 km/h (1 Bft)
01.06.2015 10:25 19,4 C 22,3 C 57 % 1017,2 hPa 0,0 mm 5,4 km/h (1 Bft) W-NW 292 10,7 C 6,0 km/h (2 Bft)
01.06.2015 10:30 19,5 C 22,2 C 57 % 1017,2 hPa 0,0 mm 6,2 km/h (2 Bft) N-NW 337 10,8 C 11,9 km/h (2 Bft)
01.06.2015 10:35 19,6 C 22,3 C 57 % 1017,2 hPa 0,0 mm 7,0 km/h (2 Bft) NW 315 10,8 C 4,4 km/h (1 Bft)
01.06.2015 10:40 19,7 C 22,5 C 56 % 1017,2 hPa 0,0 mm 6,5 km/h (2 Bft) W-NW 292 10,7 C 6,2 km/h (2 Bft)
01.06.2015 10:45 19,7 C 22,7 C 56 % 1017,2 hPa 0,0 mm 6,2 km/h (2 Bft) W-NW 292 10,7 C 6,5 km/h (2 Bft)
01.06.2015 10:50 19,7 C 22,5 C 56 % 1017,2 hPa 0,0 mm 7,3 km/h (2 Bft) NW 315 10,7 C 15,0 km/h (3 Bft)
01.06.2015 10:55 19,8 C 22,5 C 56 % 1017,2 hPa 0,0 mm 7,5 km/h (2 Bft) W-NW 292 10,8 C 17,6 km/h (3 Bft)
01.06.2015 11:00 19,8 C 22,8 C 56 % 1017,0 hPa 0,0 mm 7,0 km/h (2 Bft) W 270 10,8 C 4,7 km/h (1 Bft)
01.06.2015 11:05 20,0 C 23,2 C 56 % 1017,0 hPa 0,0 mm 5,7 km/h (1 Bft) NW 315 11,0 C 4,9 km/h (1 Bft)
01.06.2015 11:10 20,4 C 24,1 C 56 % 1017,0 hPa 0,0 mm 4,4 km/h (1 Bft) W-NW 292 11,3 C 5,7 km/h (1 Bft)
01.06.2015 11:15 20,6 C 24,6 C 56 % 1017,0 hPa 0,0 mm 4,1 km/h (1 Bft) W-SW 247 11,5 C 6,2 km/h (2 Bft)
01.06.2015 11:20 21,2 C 25,7 C 56 % 1017,2 hPa 0,0 mm 3,6 km/h (1 Bft) SW 225 12,1 C 3,9 km/h (1 Bft)
01.06.2015 11:25 21,5 C 26,2 C 55 % 1017,2 hPa 0,0 mm 4,1 km/h (1 Bft) NW 315 12,1 C 7,3 km/h (2 Bft)
01.06.2015 11:30 21,6 C 26,3 C 55 % 1017,2 hPa 0,0 mm 4,9 km/h (1 Bft) NW 315 12,2 C 4,1 km/h (1 Bft)
01.06.2015 11:35 21,9 C 26,7 C 55 % 1017,2 hPa 0,0 mm 3,9 km/h (1 Bft) NW 315 12,4 C 4,7 km/h (1 Bft)
01.06.2015 11:40 22,0 C 26,7 C 54 % 1017,0 hPa 0,0 mm 5,4 km/h (1 Bft) W-NW 292 12,3 C 16,8 km/h (3 Bft)
01.06.2015 11:45 21,9 C 26,5 C 54 % 1017,0 hPa 0,0 mm 7,8 km/h (2 Bft) N 360 12,2 C 11,4 km/h (2 Bft)
01.06.2015 11:50 22,0 C 26,6 C 53 % 1017,0 hPa 0,0 mm 7,3 km/h (2 Bft) NW 315 12,0 C 9,6 km/h (2 Bft)
01.06.2015 11:55 22,2 C 27,2 C 53 % 1017,0 hPa 0,0 mm 5,2 km/h (1 Bft) NW 315 12,2 C 0,0 km/h (0 Bft)
01.06.2015 12:00 22,6 C 27,8 C 53 % 1017,2 hPa 0,0 mm 4,7 km/h (1 Bft) W-NW 292 12,5 C 4,9 km/h (1 Bft)
01.06.2015 12:05 22,7 C 27,8 C 53 % 1017,2 hPa 0,0 mm 4,7 km/h (1 Bft) W-NW 292 12,6 C 13,5 km/h (3 Bft)
01.06.2015 12:10 22,3 C 26,9 C 52 % 1017,2 hPa 0,0 mm 5,7 km/h (1 Bft) NW 315 12,0 C 4,1 km/h (1 Bft)
01.06.2015 12:15 22,4 C 26,9 C 52 % 1017,2 hPa 0,0 mm 4,7 km/h (1 Bft) W-NW 292 12,1 C 5,7 km/h (1 Bft)
01.06.2015 12:20 22,8 C 28,0 C 52 % 1017,3 hPa 0,0 mm 2,8 km/h (1 Bft) W 270 12,4 C 8,5 km/h (2 Bft)
01.06.2015 12:25 22,8 C 27,9 C 51 % 1017,3 hPa 0,0 mm 3,6 km/h (1 Bft) NW 315 12,1 C 7,5 km/h (2 Bft)
01.06.2015 12:30 23,2 C 27,8 C 49 % 1017,3 hPa 0,0 mm 6,0 km/h (2 Bft) SW 225 11,9 C 3,1 km/h (1 Bft)
01.06.2015 12:35 23,0 C 27,8 C 48 % 1017,3 hPa 0,0 mm 5,2 km/h (1 Bft) S-SO 157 11,4 C 3,4 km/h (1 Bft)
01.06.2015 12:40 22,9 C 27,8 C 49 % 1017,0 hPa 0,0 mm 3,6 km/h (1 Bft) NW 315 11,6 C 14,0 km/h (3 Bft)
01.06.2015 12:45 22,8 C 27,1 C 49 % 1017,0 hPa 0,0 mm 6,2 km/h (2 Bft) N-NO 22 11,5 C 9,6 km/h (2 Bft)
01.06.2015 12:50 22,7 C 26,6 C 49 % 1017,0 hPa 0,0 mm 9,1 km/h (2 Bft) N-NO 22 11,4 C 10,4 km/h (2 Bft)
01.06.2015 12:55 22,5 C 25,5 C 49 % 1017,0 hPa 0,0 mm 6,2 km/h (2 Bft) O-NO 67 11,2 C 12,7 km/h (3 Bft)
01.06.2015 13:00 22,6 C 25,0 C 49 % 1017,1 hPa 0,0 mm 6,0 km/h (2 Bft) NW 315 11,3 C 5,4 km/h (1 Bft)
01.06.2015 13:05 22,7 C 25,1 C 49 % 1017,1 hPa 0,0 mm 6,2 km/h (2 Bft) N-NO 22 11,4 C 3,4 km/h (1 Bft)
01.06.2015 13:10 22,6 C 25,2 C 49 % 1017,1 hPa 0,0 mm 2,1 km/h (1 Bft) S 180 11,3 C 0,0 km/h (0 Bft)
01.06.2015 13:15 22,4 C 25,1 C 49 % 1017,1 hPa 0,0 mm 2,1 km/h (1 Bft) S 180 11,2 C 4,1 km/h (1 Bft)
01.06.2015 13:20 22,9 C 26,1 C 51 % 1017,0 hPa 0,0 mm 2,8 km/h (1 Bft) O-SO 112 12,2 C 3,1 km/h (1 Bft)
01.06.2015 13:25 23,5 C 27,0 C 49 % 1017,0 hPa 0,0 mm 3,4 km/h (1 Bft) W-NW 292 12,2 C 4,9 km/h (1 Bft)
01.06.2015 13:30 23,2 C 27,8 C 48 % 1017,0 hPa 0,0 mm 2,8 km/h (1 Bft) W 270 11,6 C 0,0 km/h (0 Bft)
01.06.2015 13:35 23,2 C 27,4 C 49 % 1017,0 hPa 0,0 mm 3,1 km/h (1 Bft) W-NW 292 11,9 C 4,1 km/h (1 Bft)
01.06.2015 13:40 23,6 C 28,0 C 49 % 1016,9 hPa 0,0 mm 3,6 km/h (1 Bft) W-NW 292 12,2 C 9,1 km/h (2 Bft)
01.06.2015 13:45 23,7 C 28,4 C 49 % 1016,9 hPa 0,0 mm 3,6 km/h (1 Bft) O-NO 67 12,3 C 6,0 km/h (2 Bft)
01.06.2015 13:50 23,6 C 28,7 C 49 % 1016,9 hPa 0,0 mm 3,9 km/h (1 Bft) N-NO 22 12,2 C 4,7 km/h (1 Bft)
01.06.2015 13:55 24,0 C 29,1 C 49 % 1016,9 hPa 0,0 mm 4,4 km/h (1 Bft) NW 315 12,6 C 5,4 km/h (1 Bft)
01.06.2015 14:00 24,2 C 29,6 C 48 % 1016,7 hPa 0,0 mm 4,7 km/h (1 Bft) W 270 12,5 C 4,4 km/h (1 Bft)
01.06.2015 14:05 24,4 C 29,8 C 48 % 1016,7 hPa 0,0 mm 4,9 km/h (1 Bft) W-NW 292 12,7 C 7,5 km/h (2 Bft)
01.06.2015 14:10 24,3 C 29,2 C 48 % 1016,7 hPa 0,0 mm 7,0 km/h (2 Bft) N-NW 337 12,6 C 8,5 km/h (2 Bft)
01.06.2015 14:15 24,4 C 29,0 C 48 % 1016,7 hPa 0,0 mm 8,3 km/h (2 Bft) NW 315 12,7 C 10,1 km/h (2 Bft)
01.06.2015 14:20 24,1 C 28,0 C 47 % 1016,6 hPa 0,0 mm 8,8 km/h (2 Bft) N-NO 22 12,1 C 9,8 km/h (2 Bft)
01.06.2015 14:25 23,6 C 26,9 C 47 % 1016,6 hPa 0,0 mm 8,3 km/h (2 Bft) N-NW 337 11,6 C 19,9 km/h (4 Bft)
01.06.2015 14:30 23,2 C 26,5 C 47 % 1016,6 hPa 0,0 mm 6,0 km/h (2 Bft) O-NO 67 11,3 C 3,4 km/h (1 Bft)
01.06.2015 14:35 23,2 C 26,5 C 47 % 1016,6 hPa 0,0 mm 4,7 km/h (1 Bft) N-NW 337 11,3 C 0,0 km/h (0 Bft)
01.06.2015 14:40 23,6 C 27,2 C 47 % 1016,6 hPa 0,0 mm 4,4 km/h (1 Bft) O-NO 67 11,6 C 5,2 km/h (1 Bft)
01.06.2015 14:45 23,8 C 28,0 C 47 % 1016,6 hPa 0,0 mm 2,8 km/h (1 Bft) O-NO 67 11,8 C 0,0 km/h (0 Bft)
01.06.2015 14:50 23,8 C 29,0 C 46 % 1016,6 hPa 0,0 mm 2,3 km/h (1 Bft) SO 135 11,5 C 9,3 km/h (2 Bft)
01.06.2015 14:55 23,3 C 28,1 C 47 % 1016,6 hPa 0,0 mm 3,9 km/h (1 Bft) W-NW 292 11,3 C 8,5 km/h (2 Bft)
01.06.2015 15:00 23,0 C 26,6 C 48 % 1016,5 hPa 0,0 mm 5,4 km/h (1 Bft) O-SO 112 11,4 C 0,0 km/h (0 Bft)
01.06.2015 15:05 23,2 C 26,5 C 48 % 1016,5 hPa 0,0 mm 4,7 km/h (1 Bft) N-NO 22 11,6 C 9,1 km/h (2 Bft)
01.06.2015 15:10 23,3 C 26,9 C 47 % 1016,5 hPa 0,0 mm 4,9 km/h (1 Bft) NO 45 11,3 C 6,7 km/h (2 Bft)
01.06.2015 15:15 22,8 C 25,9 C 48 % 1016,5 hPa 0,0 mm 5,7 km/h (1 Bft) O-SO 112 11,2 C 3,9 km/h (1 Bft)
01.06.2015 15:20 22,0 C 24,3 C 49 % 1016,3 hPa 0,0 mm 5,7 km/h (1 Bft) O 90 10,8 C 4,7 km/h (1 Bft)
01.06.2015 15:25 21,7 C 23,7 C 49 % 1016,3 hPa 0,0 mm 5,7 km/h (1 Bft) N-NO 22 10,5 C 6,5 km/h (2 Bft)
01.06.2015 15:30 21,6 C 23,2 C 50 % 1016,3 hPa 0,0 mm 4,4 km/h (1 Bft) O-NO 67 10,7 C 8,5 km/h (2 Bft)
01.06.2015 15:35 21,4 C 22,6 C 52 % 1016,3 hPa 0,0 mm 3,9 km/h (1 Bft) SO 135 11,1 C 4,1 km/h (1 Bft)
01.06.2015 15:40 20,6 C 20,7 C 55 % 1016,1 hPa 0,0 mm 4,1 km/h (1 Bft) SO 135 11,2 C 3,4 km/h (1 Bft)
01.06.2015 15:45 20,5 C 21,1 C 56 % 1016,1 hPa 0,0 mm 3,1 km/h (1 Bft) O-NO 67 11,4 C 3,1 km/h (1 Bft)
01.06.2015 15:50 21,0 C 22,4 C 57 % 1016,1 hPa 0,0 mm 2,3 km/h (1 Bft) NO 45 12,1 C 5,4 km/h (1 Bft)
01.06.2015 15:55 21,3 C 23,5 C 58 % 1016,1 hPa 0,0 mm 2,6 km/h (1 Bft) O-NO 67 12,7 C 4,7 km/h (1 Bft)
01.06.2015 16:00 21,7 C 25,4 C 56 % 1016,1 hPa 0,0 mm 4,9 km/h (1 Bft) NO 45 12,5 C 11,1 km/h (2 Bft)
01.06.2015 16:05 21,6 C 26,1 C 53 % 1016,1 hPa 0,0 mm 8,0 km/h (2 Bft) NO 45 11,6 C 10,1 km/h (2 Bft)
01.06.2015 16:10 21,5 C 26,1 C 53 % 1016,1 hPa 0,0 mm 10,1 km/h (2 Bft) O-NO 67 11,5 C 9,8 km/h (2 Bft)
01.06.2015 16:15 21,4 C 25,7 C 54 % 1016,1 hPa 0,0 mm 8,8 km/h (2 Bft) O 90 11,7 C 7,8 km/h (2 Bft)
01.06.2015 16:20 21,3 C 24,6 C 56 % 1016,1 hPa 0,0 mm 6,5 km/h (2 Bft) O-SO 112 12,2 C 7,8 km/h (2 Bft)
01.06.2015 16:25 21,2 C 23,8 C 57 % 1016,1 hPa 0,0 mm 4,9 km/h (1 Bft) S-SO 157 12,3 C 0,0 km/h (0 Bft)
01.06.2015 16:30 20,9 C 22,9 C 58 % 1016,1 hPa 0,0 mm 2,8 km/h (1 Bft) SO 135 12,3 C 3,9 km/h (1 Bft)
01.06.2015 16:35 20,6 C 22,2 C 57 % 1016,1 hPa 0,0 mm 1,6 km/h (1 Bft) O-SO 112 11,8 C 2,8 km/h (1 Bft)
01.06.2015 16:40 20,2 C 21,5 C 57 % 1016,0 hPa 0,0 mm 0,8 km/h (0 Bft) SO 135 11,4 C 0,0 km/h (0 Bft)
01.06.2015 16:45 20,0 C 21,0 C 58 % 1016,0 hPa 0,0 mm 0,3 km/h (0 Bft) SO 135 11,5 C 0,0 km/h (0 Bft)
01.06.2015 16:50 19,3 C 19,3 C 60 % 1016,0 hPa 0,0 mm 1,0 km/h (0 Bft) S 180 11,3 C 5,4 km/h (1 Bft)
01.06.2015 16:55 18,7 C 18,5 C 63 % 1016,0 hPa 0,0 mm 2,8 km/h (1 Bft) S-SW 202 11,5 C 6,7 km/h (2 Bft)
01.06.2015 17:00 18,1 C 17,7 C 67 % 1016,6 hPa 0,0 mm 4,7 km/h (1 Bft) SW 225 11,9 C 6,7 km/h (2 Bft)
01.06.2015 17:05 17,6 C 17,2 C 72 % 1016,6 hPa 0,0 mm 3,4 km/h (1 Bft) SO 135 12,5 C 2,8 km/h (1 Bft)
01.06.2015 17:10 16,8 C 16,5 C 74 % 1016,6 hPa 2,1 mm 1,3 km/h (1 Bft) W-SW 247 12,1 C 0,0 km/h (0 Bft)
01.06.2015 17:15 16,8 C 16,5 C 74 % 1016,6 hPa 0,0 mm 0,5 km/h (0 Bft) SW 225 12,1 C 3,4 km/h (1 Bft)
01.06.2015 17:20 16,4 C 16,1 C 75 % 1016,8 hPa 0,0 mm 2,6 km/h (1 Bft) SO 135 12,0 C 6,0 km/h (2 Bft)
01.06.2015 17:25 16,4 C 16,2 C 72 % 1016,8 hPa 0,7 mm 3,6 km/h (1 Bft) O-SO 112 11,3 C 0,0 km/h (0 Bft)
01.06.2015 17:30 16,8 C 17,1 C 73 % 1016,8 hPa 0,0 mm 2,1 km/h (1 Bft) O-SO 112 11,9 C 0,0 km/h (0 Bft)
01.06.2015 17:35 16,9 C 17,3 C 73 % 1016,8 hPa 0,0 mm 0,8 km/h (0 Bft) W-SW 247 12,0 C 3,4 km/h (1 Bft)
01.06.2015 17:40 16,6 C 17,2 C 74 % 1016,5 hPa 0,0 mm 1,0 km/h (0 Bft) S-SW 202 11,9 C 3,1 km/h (1 Bft)
01.06.2015 17:45 16,6 C 17,6 C 74 % 1016,5 hPa 0,0 mm 0,8 km/h (0 Bft) O-SO 112 11,9 C 0,0 km/h (0 Bft)
01.06.2015 17:50 16,3 C 17,6 C 75 % 1016,5 hPa 0,0 mm 1,8 km/h (1 Bft) S-SO 157 11,9 C 4,1 km/h (1 Bft)
01.06.2015 17:55 16,4 C 17,8 C 75 % 1016,5 hPa 0,0 mm 2,1 km/h (1 Bft) SO 135 12,0 C 0,0 km/h (0 Bft)
01.06.2015 18:00 17,2 C 18,6 C 76 % 1016,2 hPa 0,0 mm 1,6 km/h (1 Bft) SW 225 12,9 C 6,0 km/h (2 Bft)
01.06.2015 18:05 17,6 C 19,0 C 76 % 1016,2 hPa 0,0 mm 1,6 km/h (1 Bft) W 270 13,3 C 0,0 km/h (0 Bft)
01.06.2015 18:10 17,9 C 19,4 C 76 % 1016,2 hPa 0,0 mm 1,6 km/h (1 Bft) NW 315 13,6 C 4,7 km/h (1 Bft)
01.06.2015 18:15 17,9 C 18,8 C 76 % 1016,2 hPa 0,0 mm 1,8 km/h (1 Bft) W-SW 247 13,6 C 0,0 km/h (0 Bft)
01.06.2015 18:20 17,6 C 18,1 C 75 % 1016,4 hPa 0,0 mm 2,3 km/h (1 Bft) SW 225 13,1 C 0,0 km/h (0 Bft)
01.06.2015 18:25 17,4 C 17,7 C 77 % 1016,4 hPa 0,0 mm 0,8 km/h (0 Bft) NW 315 13,3 C 0,0 km/h (0 Bft)
01.06.2015 18:30 17,0 C 17,4 C 76 % 1016,4 hPa 0,0 mm 0,0 km/h (0 Bft) SO 135 12,7 C 0,0 km/h (0 Bft)
01.06.2015 18:35 16,7 C 17,2 C 77 % 1016,4 hPa 0,0 mm 0,0 km/h (0 Bft) O-SO 112 12,6 C 0,0 km/h (0 Bft)
01.06.2015 18:40 16,4 C 16,8 C 81 % 1015,8 hPa 0,0 mm 0,0 km/h (0 Bft) O-SO 112 13,1 C 0,0 km/h (0 Bft)
01.06.2015 18:45 16,3 C 16,6 C 78 % 1015,8 hPa 0,0 mm 0,0 km/h (0 Bft) S 180 12,5 C 0,0 km/h (0 Bft)
01.06.2015 18:50 16,0 C 16,2 C 78 % 1015,8 hPa 0,0 mm 1,3 km/h (1 Bft) SO 135 12,2 C 2,6 km/h (1 Bft)
01.06.2015 18:55 16,0 C 16,2 C 79 % 1015,8 hPa 0,0 mm 2,1 km/h (1 Bft) S 180 12,4 C 4,9 km/h (1 Bft)
01.06.2015 19:00 16,1 C 16,0 C 82 % 1016,2 hPa 0,0 mm 2,8 km/h (1 Bft) W-SW 247 13,0 C 5,7 km/h (1 Bft)
01.06.2015 19:05 16,0 C 15,9 C 82 % 1016,2 hPa 0,0 mm 2,6 km/h (1 Bft) S 180 12,9 C 0,0 km/h (0 Bft)
01.06.2015 19:10 16,0 C 16,1 C 80 % 1016,2 hPa 0,0 mm 1,0 km/h (0 Bft) S 180 12,5 C 0,0 km/h (0 Bft)
01.06.2015 19:15 16,2 C 16,8 C 80 % 1016,2 hPa 0,0 mm 0,0 km/h (0 Bft) S-SO 157 12,7 C 0,0 km/h (0 Bft)
01.06.2015 19:20 16,4 C 17,4 C 80 % 1016,4 hPa 0,0 mm 0,5 km/h (0 Bft) N 360 12,9 C 3,9 km/h (1 Bft)
01.06.2015 19:25 16,6 C 17,4 C 80 % 1016,4 hPa 0,0 mm 1,3 km/h (1 Bft) W-SW 247 13,1 C 0,0 km/h (0 Bft)
01.06.2015 19:30 16,6 C 17,1 C 80 % 1016,4 hPa 0,0 mm 1,0 km/h (0 Bft) N-NO 22 13,1 C 0,0 km/h (0 Bft)
01.06.2015 19:35 16,4 C 16,7 C 80 % 1016,4 hPa 0,0 mm 0,3 km/h (0 Bft) S 180 12,9 C 0,0 km/h (0 Bft)
01.06.2015 19:40 16,2 C 16,4 C 80 % 1016,5 hPa 0,0 mm 0,0 km/h (0 Bft) SO 135 12,7 C 0,0 km/h (0 Bft)
01.06.2015 19:45 16,1 C 16,2 C 80 % 1016,5 hPa 0,0 mm 0,0 km/h (0 Bft) S-SO 157 12,6 C 0,0 km/h (0 Bft)
01.06.2015 19:50 16,1 C 16,1 C 80 % 1016,5 hPa 0,0 mm 1,0 km/h (0 Bft) NW 315 12,6 C 4,1 km/h (1 Bft)
01.06.2015 19:55 16,0 C 16,0 C 80 % 1016,5 hPa 0,0 mm 1,3 km/h (1 Bft) W-SW 247 12,5 C 0,0 km/h (0 Bft)
01.06.2015 20:00 16,0 C 16,0 C 80 % 1016,6 hPa 0,0 mm 0,5 km/h (0 Bft) W-SW 247 12,5 C 0,0 km/h (0 Bft)
01.06.2015 20:05 15,9 C 16,0 C 82 % 1016,6 hPa 0,0 mm 0,0 km/h (0 Bft) W-SW 247 12,8 C 0,0 km/h (0 Bft)
01.06.2015 20:10 15,9 C 16,0 C 82 % 1016,6 hPa 0,0 mm 0,0 km/h (0 Bft) N-NW 337 12,8 C 0,0 km/h (0 Bft)
01.06.2015 20:15 16,0 C 16,2 C 81 % 1016,6 hPa 0,0 mm 0,3 km/h (0 Bft) W 270 12,7 C 5,7 km/h (1 Bft)
01.06.2015 20:20 15,9 C 16,0 C 82 % 1016,7 hPa 0,0 mm 0,8 km/h (0 Bft) S-SO 157 12,8 C 0,0 km/h (0 Bft)
01.06.2015 20:25 15,8 C 15,7 C 84 % 1016,7 hPa 0,0 mm 1,6 km/h (1 Bft) S-SO 157 13,1 C 4,4 km/h (1 Bft)
01.06.2015 20:30 15,2 C 15,2 C 83 % 1016,7 hPa 0,0 mm 2,6 km/h (1 Bft) SO 135 12,3 C 3,9 km/h (1 Bft)
01.06.2015 20:35 15,1 C 15,1 C 83 % 1016,7 hPa 0,0 mm 3,1 km/h (1 Bft) O-SO 112 12,2 C 3,1 km/h (1 Bft)
01.06.2015 20:40 14,9 C 15,0 C 81 % 1016,4 hPa 0,0 mm 2,1 km/h (1 Bft) S-SW 202 11,7 C 7,8 km/h (2 Bft)
01.06.2015 20:45 15,0 C 15,0 C 81 % 1016,4 hPa 0,0 mm 3,9 km/h (1 Bft) S-SO 157 11,8 C 2,8 km/h (1 Bft)
01.06.2015 20:50 14,9 C 14,8 C 83 % 1016,4 hPa 0,0 mm 4,4 km/h (1 Bft) S-SO 157 12,0 C 2,8 km/h (1 Bft)
01.06.2015 20:55 14,7 C 14,6 C 84 % 1016,4 hPa 0,0 mm 1,8 km/h (1 Bft) SO 135 12,0 C 2,8 km/h (1 Bft)
01.06.2015 21:00 14,5 C 14,4 C 85 % 1016,4 hPa 0,0 mm 0,3 km/h (0 Bft) O-SO 112 12,0 C 0,0 km/h (0 Bft)
01.06.2015 21:05 14,5 C 14,4 C 85 % 1016,4 hPa 0,0 mm 0,0 km/h (0 Bft) SO 135 12,0 C 0,0 km/h (0 Bft)
01.06.2015 21:10 14,5 C 14,4 C 82 % 1016,4 hPa 0,0 mm 0,0 km/h (0 Bft) S 180 11,5 C 0,0 km/h (0 Bft)
01.06.2015 21:15 14,5 C 14,4 C 85 % 1016,4 hPa 0,0 mm 0,0 km/h (0 Bft) O-SO 112 12,0 C 0,0 km/h (0 Bft)
01.06.2015 21:20 14,5 C 14,3 C 86 % 1016,8 hPa 0,0 mm 0,0 km/h (0 Bft) S-SO 157 12,2 C 0,0 km/h (0 Bft)
01.06.2015 21:25 14,5 C 14,4 C 86 % 1016,8 hPa 0,0 mm 0,0 km/h (0 Bft) NW 315 12,2 C 2,6 km/h (1 Bft)
01.06.2015 21:30 14,6 C 14,5 C 86 % 1016,8 hPa 0,0 mm 2,6 km/h (1 Bft) W-NW 292 12,3 C 5,2 km/h (1 Bft)
01.06.2015 21:35 14,6 C 14,5 C 83 % 1016,8 hPa 0,0 mm 2,6 km/h (1 Bft) W 270 11,7 C 0,0 km/h (0 Bft)
01.06.2015 21:40 14,7 C 14,5 C 86 % 1016,9 hPa 0,0 mm 1,8 km/h (1 Bft) S-SO 157 12,4 C 6,0 km/h (2 Bft)
01.06.2015 21:45 14,7 C 14,6 C 86 % 1016,9 hPa 0,0 mm 2,6 km/h (1 Bft) S-SO 157 12,4 C 5,2 km/h (1 Bft)
01.06.2015 21:50 14,7 C 14,7 C 83 % 1016,9 hPa 0,0 mm 3,9 km/h (1 Bft) S 180 11,8 C 5,7 km/h (1 Bft)
01.06.2015 21:55 14,7 C 14,7 C 83 % 1016,9 hPa 0,0 mm 2,6 km/h (1 Bft) W 270 11,8 C 0,0 km/h (0 Bft)
01.06.2015 22:00 14,7 C 14,6 C 86 % 1017,1 hPa 0,0 mm 1,0 km/h (0 Bft) W 270 12,4 C 0,0 km/h (0 Bft)
01.06.2015 22:05 14,7 C 14,6 C 86 % 1017,1 hPa 0,0 mm 0,5 km/h (0 Bft) S 180 12,4 C 4,7 km/h (1 Bft)
01.06.2015 22:10 14,6 C 14,6 C 87 % 1017,1 hPa 0,0 mm 2,3 km/h (1 Bft) O-SO 112 12,5 C 5,4 km/h (1 Bft)
01.06.2015 22:15 14,6 C 14,5 C 87 % 1017,1 hPa 0,0 mm 2,8 km/h (1 Bft) W 270 12,5 C 3,1 km/h (1 Bft)
01.06.2015 22:20 14,5 C 14,5 C 84 % 1017,3 hPa 0,0 mm 1,6 km/h (1 Bft) SW 225 11,8 C 0,0 km/h (0 Bft)
01.06.2015 22:25 14,5 C 14,5 C 86 % 1017,3 hPa 0,0 mm 0,5 km/h (0 Bft) W-SW 247 12,2 C 0,0 km/h (0 Bft)
01.06.2015 22:30 14,4 C 14,4 C 86 % 1017,3 hPa 0,0 mm 0,0 km/h (0 Bft) SO 135 12,1 C 0,0 km/h (0 Bft)
01.06.2015 22:35 14,4 C 14,3 C 86 % 1017,3 hPa 0,0 mm 0,5 km/h (0 Bft) W 270 12,1 C 4,9 km/h (1 Bft)
01.06.2015 22:40 14,4 C 14,3 C 86 % 1017,4 hPa 0,0 mm 0,3 km/h (0 Bft) W-NW 292 12,1 C 0,0 km/h (0 Bft)
01.06.2015 22:45 14,4 C 14,3 C 86 % 1017,4 hPa 0,0 mm 0,5 km/h (0 Bft) SW 225 12,1 C 0,0 km/h (0 Bft)
01.06.2015 22:50 14,5 C 14,5 C 86 % 1017,4 hPa 0,0 mm 0,5 km/h (0 Bft) NW 315 12,2 C 5,2 km/h (1 Bft)
01.06.2015 22:55 14,5 C 14,5 C 83 % 1017,4 hPa 0,0 mm 1,6 km/h (1 Bft) O 90 11,6 C 2,8 km/h (1 Bft)
01.06.2015 23:00 14,6 C 14,5 C 86 % 1017,7 hPa 0,0 mm 1,8 km/h (1 Bft) W-NW 292 12,3 C 0,0 km/h (0 Bft)
01.06.2015 23:05 14,6 C 14,5 C 86 % 1017,7 hPa 0,0 mm 1,6 km/h (1 Bft) W 270 12,3 C 0,0 km/h (0 Bft)
01.06.2015 23:10 14,5 C 14,4 C 86 % 1017,7 hPa 0,0 mm 2,6 km/h (1 Bft) W-SW 247 12,2 C 4,9 km/h (1 Bft)
01.06.2015 23:15 14,3 C 14,2 C 87 % 1017,7 hPa 0,0 mm 5,2 km/h (1 Bft) W-NW 292 12,2 C 12,2 km/h (2 Bft)
01.06.2015 23:20 14,1 C 14,0 C 87 % 1018,0 hPa 0,7 mm 6,0 km/h (2 Bft) W 270 12,0 C 0,0 km/h (0 Bft)
01.06.2015 23:25 14,0 C 13,9 C 87 % 1018,0 hPa 0,7 mm 4,1 km/h (1 Bft) SW 225 11,9 C 7,0 km/h (2 Bft)
01.06.2015 23:30 13,5 C 13,4 C 87 % 1018,0 hPa 0,7 mm 3,6 km/h (1 Bft) W 270 11,4 C 0,0 km/h (0 Bft)
01.06.2015 23:35 13,4 C 13,3 C 86 % 1018,0 hPa 0,7 mm 3,9 km/h (1 Bft) SW 225 11,1 C 3,1 km/h (1 Bft)
01.06.2015 23:40 13,1 C 13,0 C 86 % 1018,1 hPa 1,4 mm 1,3 km/h (1 Bft) S 180 10,8 C 0,0 km/h (0 Bft)
01.06.2015 23:45 13,0 C 12,9 C 86 % 1018,1 hPa 0,7 mm 0,5 km/h (0 Bft) S 180 10,7 C 0,0 km/h (0 Bft)
01.06.2015 23:50 12,8 C 12,7 C 87 % 1018,1 hPa 0,7 mm 0,0 km/h (0 Bft) W-SW 247 10,7 C 0,0 km/h (0 Bft)
01.06.2015 23:55 12,8 C 12,6 C 87 % 1018,1 hPa 0,0 mm 0,0 km/h (0 Bft) SO 135 10,7 C 0,0 km/h (0 Bft)
_ Min-Zeit 02:55 02:55 14:50 02:35 - 23:55 - - 01:40 23:55
Minimum _ 9,5 C 9,3 C 46 % 1015,6 hPa - 0,0 km/h (0 Bft) - - 7,0 C 0,0 km/h (0 Bft)
_ Max-Zeit 14:15 14:05 23:55 23:55 17:10 16:10 - - 18:15 14:25
Maximum _ 24,4 C 29,8 C 87 % 1018,1 hPa 2,1 mm 10,1 km/h
O-NO (2 Bft)
- - 13,6 C 19,9 km/h
N-NW (4 Bft)
Durchschnitt _ 16,2 C 17,9 C 71 % 1016,6 hPa #8,2 mm 2,3 km/h (1 Bft) NW - 10,6 C 3,1 km/h (1 Bft)